{"data":{"norad_id":59178,"intl_designator":"2024-045A","name":"STARLINK-31439","alt_names":[],"object_type":"PAYLOAD","status":"ACTIVE","operator":null,"country":"US","launch_date":"2024-03-10","launch_site_code":"AFETR","launch_vehicle":null,"mission":null,"orbit_class":"UNKNOWN","rcs_meters":null,"size_class":null,"mass_kg":null,"dimensions":null,"purposes":["comms"],"wikipedia_slug":null,"has_3d_model":false,"image_url":null,"decayed_at":null,"tle_current":{"epoch":"2026-05-25T00:32:23.275104Z","epoch_age_seconds":66404,"freshness":"FRESH","line1":"1 59178U 24045A   26145.02249161  .00003603  00000+0  14031-3 0  9991","line2":"2 59178  43.0035  18.1581 0001048 270.3771  89.6961 15.27594161 61200","mean_motion":15.27594161,"eccentricity":0.0001048,"inclination_deg":43.0035,"raan_deg":18.1581,"arg_perigee_deg":270.3771,"mean_anomaly_deg":89.6961,"bstar":0.00014031,"rev_number":6120,"period_min":94.265874848418,"perigee_km":482.28764537978,"apogee_km":483.72574109788,"semimajor_km":6861.1436932388,"source":"CELESTRAK","updated_at":"2026-05-25T13:38:18.837538Z"}}}